Location: M.A.R.S.Observatory
(35.4031°N, 81.5481°W)
Time: 03:57:43
(UTC-05:00)

SL-8 R/B - Visible Passes

Search period start: 25 February 2017 00:00
Search period end: 07 March 2017 00:00
Orbit: 657 x 668 km, 48.4° (Epoch: 24 February)

Date Brightness Start Highest point End Pass type
(mag) Time Alt. Az. Time Alt. Az. Time Alt. Az.
25 Feb 6.3 18:50:54 10° W 18:54:25 20° SW 18:57:57 10° S visible
05 Mar 6.7 05:54:04 10° SE 05:55:31 11° SE 05:56:58 10° ESE visible
06 Mar 5.5 06:21:59 10° SSW 06:26:11 31° SE 06:30:22 10° ENE visible
